GFSSGP_250_spd_336.txt.gz
Wind_Speed
18 19 17 17 17 18 20 18 19 23 30 38 42 42 44 45 45 44 45 47 46 46 49 48 48 50 51 44 43 39 36 34 35 37 38 39 39 40 42 42 42 43 43 42 43 42 40 40 41
21 22 20 19 18 20 21 21 22 24 25 31 33 39 42 46 48 51 50 50 51 51 52 53 54 55 54 50 44 39 34 30 32 33 35 36 37 37 39 39 39 39 38 39 38 36 35 36 38
20 22 22 22 23 20 19 19 23 25 27 27 26 31 37 44 44 47 51 54 55 53 50 48 48 46 47 45 40 33 35 32 34 34 34 36 36 35 34 34 33 33 34 34 34 36 37 36 37
21 21 23 25 25 26 23 24 25 23 28 28 28 29 31 33 35 40 41 42 44 44 44 45 45 45 42 42 36 35 34 37 39 37 36 35 36 36 36 33 33 34 36 37 38 38 37 36 36
22 21 22 22 22 25 26 24 24 26 28 28 29 31 31 30 30 34 35 36 39 40 41 41 39 39 40 38 37 37 38 41 42 38 34 32 35 38 38 37 36 35 35 36 37 36 35 34 35
18 19 19 21 21 21 23 26 27 26 27 30 31 32 34 33 30 33 35 37 38 39 40 41 41 43 41 42 42 42 45 47 46 42 36 36 34 37 40 40 38 37 35 35 34 33 32 34 33
18 19 18 19 20 21 22 23 24 24 27 30 33 35 36 37 36 37 37 36 37 39 42 43 42 40 44 46 44 46 46 47 45 39 39 37 39 40 39 41 42 41 39 38 36 35 34 34 33
18 19 19 20 21 22 22 23 24 24 24 28 32 34 36 39 40 39 39 38 39 39 39 42 45 43 45 46 47 40 43 41 40 39 38 39 39 38 38 40 37 37 39 39 38 38 36 35 33
20 21 22 23 23 24 23 24 25 24 27 29 31 31 32 34 36 37 36 36 37 37 38 39 40 40 39 41 42 41 39 39 39 38 41 36 35 34 31 30 31 31 32 33 35 38 38 35 33
21 22 23 26 28 28 28 28 28 27 28 28 30 31 33 33 32 36 34 30 30 28 25 23 28 34 36 36 38 41 42 42 40 35 30 34 31 30 30 29 28 29 30 31 33 35 36 35 32
24 25 27 29 32 35 34 32 31 29 29 28 29 31 34 32 32 33 33 28 19 16 21 24 26 26 32 35 34 35 36 40 43 35 28 30 30 29 29 32 32 31 29 29 29 30 31 31 29
27 28 30 32 35 38 39 38 37 32 28 27 28 31 32 31 30 26 27 30 26 24 25 27 28 27 29 29 29 27 27 26 23 19 24 28 30 30 28 27 26 27 29 30 31 30 28 28 28
28 32 36 36 38 41 42 42 37 32 26 25 26 29 29 28 27 26 24 19 23 22 24 26 29 29 28 26 27 22 22 22 20 22 25 29 25 23 26 28 28 29 32 33 30 29 25 28 27
30 36 40 41 42 45 44 42 37 30 25 22 21 24 24 26 26 24 24 21 17 22 30 30 28 29 25 24 26 24 25 23 20 19 25 24 22 21 23 22 22 26 31 30 31 31 30 30 33
34 37 43 42 46 47 47 43 33 25 20 16 16 20 21 23 21 17 17 18 19 18 19 32 35 38 25 14 26 25 30 28 30 17 16 19 20 25 27 27 29 32 33 29 30 34 34 32 35
38 42 46 48 47 48 48 39 28 21 16 12 10 8 13 16 14 12 12 20 20 21 23 23 24 22 21 16 15 27 33 30 22 25 31 33 33 39 44 45 47 47 44 40 36 39 40 40 41
36 44 48 51 52 52 49 37 27 21 11 4 5 6 6 2 6 12 20 14 15 16 21 31 29 25 21 23 20 23 28 25 23 28 28 32 36 47 48 53 55 55 54 48 45 41 37 44 47
34 44 50 49 53 54 48 36 28 20 13 9 4 6 6 5 9 8 10 9 11 16 24 25 29 18 23 26 24 28 30 25 27 37 33 35 51 43 46 51 50 61 57 51 50 46 45 51 54
37 42 53 51 54 54 43 34 23 14 14 14 6 6 5 2 8 18 27 29 25 30 33 33 31 24 24 29 31 30 36 33 40 48 47 50 57 53 61 55 60 61 58 54 57 56 51 56 59
39 48 48 51 56 54 41 30 22 13 15 13 7 8 4 5 17 22 30 33 39 42 43 42 34 33 31 37 40 42 45 50 47 48 49 51 52 57 58 60 64 65 55 47 51 59 56 63 60
43 45 50 53 55 47 33 27 22 15 20 17 13 9 10 14 21 27 29 31 30 39 44 47 46 41 35 36 47 52 55 55 54 53 56 58 60 59 61 72 67 60 61 58 54 48 53 58 55
44 47 52 56 51 39 27 21 24 17 22 18 18 18 16 24 25 28 40 44 40 37 45 47 47 45 43 40 44 53 57 59 60 57 57 55 62 64 65 71 70 71 61 61 53 55 52 59 57
45 48 53 56 45 37 24 17 21 18 21 27 28 28 28 33 36 40 47 50 48 54 52 58 55 49 47 48 50 51 56 60 62 62 60 62 62 65 66 67 75 72 81 73 78 61 61 64 60
43 47 53 48 38 31 20 15 20 22 18 23 32 36 38 40 43 48 49 53 60 64 62 62 54 46 43 50 53 52 54 59 61 63 65 65 64 65 71 69 69 67 77 83 74 76 74 66 74
40 45 50 40 29 22 17 14 17 19 22 27 33 39 43 46 53 53 55 63 62 58 54 54 54 52 55 57 56 60 60 62 65 68 68 71 74 74 72 72 73 73 72 76 83 79 81 82 78
39 45 46 31 26 22 17 14 13 13 15 17 20 28 37 48 54 57 54 52 54 53 54 53 53 58 64 67 68 65 65 66 68 72 76 77 78 79 81 81 80 79 78 79 81 82 84 84 84
38 44 43 27 25 23 23 20 21 21 22 23 25 28 31 33 38 43 45 45 45 50 54 58 62 65 69 73 75 75 75 75 76 79 81 84 85 85 86 86 87 87 88 86 85 85 84 84 84
37 41 41 28 25 24 24 22 18 20 22 23 25 29 31 33 36 38 42 46 49 53 57 61 65 69 73 77 79 82 82 84 87 92 94 92 90 91 91 93 94 95 96 95 95 91 87 86 89
37 40 42 35 27 26 25 24 20 23 26 28 29 28 31 35 38 42 45 48 50 54 60 66 69 73 74 78 83 82 87 90 97 96 93 94 94 96 91 91 95 99 99 99 98 95 96 93 90
39 42 43 40 34 32 27 24 25 31 32 34 38 38 42 44 48 51 52 55 59 63 68 74 78 80 84 85 85 90 93 95 94 84 79 74 73 74 83 87 85 87 94 98 99 99 96 94 94

GFSSGP_250_spd_339.txt.gz
Wind_Speed
18 20 20 19 18 16 17 19 20 22 22 24 31 39 44 46 45 46 47 49 49 49 48 50 47 46 46 47 48 52 48 46 44 36 35 31 33 34 35 36 37 37 37 38 40 43 44 45 45
18 19 20 21 21 20 21 22 23 23 23 22 25 29 37 43 47 49 49 49 49 50 51 51 50 51 52 54 51 47 44 42 38 32 32 33 35 34 33 34 35 35 35 34 35 37 39 41 40
19 19 19 19 20 21 23 24 23 24 26 25 25 26 27 28 34 41 43 45 47 50 51 52 51 52 52 48 46 44 44 39 36 32 33 35 36 35 32 33 34 35 35 33 32 34 35 36 36
18 17 18 19 21 21 22 23 26 26 25 26 29 28 28 28 31 32 35 36 37 38 41 42 43 42 42 43 43 43 42 40 38 39 38 40 38 34 32 31 36 36 34 33 32 31 32 34 35
15 15 15 16 18 19 20 21 22 24 25 26 29 30 30 30 32 33 33 33 34 35 36 37 38 39 40 40 39 41 41 41 41 39 41 40 38 34 32 28 31 37 40 40 37 36 33 33 31
16 17 17 17 17 18 19 20 21 23 24 26 28 30 30 30 31 33 35 35 35 35 35 36 37 40 41 41 42 39 41 44 43 44 41 41 35 33 33 34 36 38 38 40 42 39 37 35 34
17 18 18 16 18 19 20 21 22 23 26 28 29 30 31 29 32 35 36 38 38 39 38 37 38 40 42 44 45 44 46 46 44 45 42 38 36 35 38 40 38 40 40 40 38 40 40 37 36
18 19 18 19 21 21 22 23 25 28 30 32 32 31 32 32 35 33 34 36 36 38 38 38 38 39 40 41 43 43 44 45 45 45 42 41 39 42 42 41 41 37 35 34 33 32 34 36 37
18 21 24 25 24 26 28 28 29 30 32 33 33 34 34 34 36 37 33 33 33 32 31 27 27 27 28 32 32 32 30 34 38 41 42 43 42 38 39 36 34 31 30 29 27 27 27 28 30
18 21 24 28 28 28 32 34 33 34 34 34 33 33 34 33 34 35 33 31 29 28 25 25 23 22 22 22 26 29 30 32 32 31 33 37 37 35 27 29 29 27 27 27 28 30 30 27 26
18 22 27 35 35 32 35 36 37 38 36 34 31 31 31 31 32 30 30 28 25 26 25 26 27 21 20 23 27 30 28 26 26 24 24 24 23 25 28 29 27 22 20 20 22 23 23 22 23
22 24 28 34 39 40 38 37 41 38 33 32 31 29 29 29 30 26 24 24 23 21 26 28 22 21 22 21 25 28 24 21 20 20 20 21 25 28 25 20 21 22 21 19 20 19 18 20 19
24 25 28 34 40 43 43 42 44 41 32 27 25 25 28 29 27 21 23 24 23 22 23 23 24 26 27 26 26 23 24 22 19 20 20 19 17 17 14 17 22 24 26 25 21 23 22 21 21
25 27 31 35 43 44 47 48 50 41 30 27 25 23 26 26 24 20 17 19 19 18 17 17 20 25 25 27 30 24 29 27 25 21 17 16 20 24 26 26 26 29 31 36 37 36 29 22 23
30 32 33 38 46 46 49 50 51 39 29 26 21 19 23 25 23 17 11 8 9 11 13 15 14 18 21 24 24 20 25 32 29 31 30 28 26 29 32 42 41 41 41 44 44 42 40 36 32
32 34 38 43 44 47 51 52 48 35 26 21 17 12 9 14 13 11 9 5 7 7 6 13 8 29 25 26 26 23 22 22 23 32 40 38 37 34 36 44 50 48 49 51 55 48 47 47 45
37 37 41 45 47 51 54 53 42 27 21 14 11 10 7 6 4 5 5 7 8 4 13 15 15 24 31 32 27 27 31 30 29 39 36 43 46 48 51 52 56 58 54 59 55 49 53 55 47
37 36 43 47 50 56 60 52 37 22 19 14 17 18 7 4 6 7 10 12 19 18 15 22 29 29 34 31 30 35 38 45 42 43 46 46 48 53 53 55 60 65 57 62 59 59 60 62 65
39 36 44 49 53 57 58 45 33 22 19 16 18 21 16 14 12 16 20 20 25 28 31 30 32 32 37 42 43 47 45 49 53 55 51 52 53 58 57 59 61 60 62 68 62 66 67 64 49
37 38 45 50 55 59 51 42 33 22 18 20 18 20 20 20 33 32 32 28 20 25 32 37 33 34 40 46 47 53 51 56 55 57 60 62 64 64 62 61 62 64 67 65 65 63 56 55 66
36 39 46 49 54 49 46 39 29 25 18 20 24 26 25 30 30 31 33 34 36 37 39 45 48 48 54 62 59 61 53 56 56 57 62 65 70 71 69 67 67 67 67 64 65 69 64 59 54
36 40 44 49 51 43 42 38 34 27 23 20 22 29 31 31 36 38 35 38 44 49 52 53 52 54 60 61 57 58 54 52 58 60 63 68 71 74 73 72 71 73 68 65 65 67 67 76 58
36 40 42 47 49 41 39 36 34 32 28 23 25 26 28 32 36 41 44 50 54 56 58 60 62 63 56 53 50 50 53 54 59 63 68 71 74 76 76 74 72 73 73 74 70 69 68 64 72
37 38 41 44 46 38 35 32 29 28 27 26 23 22 27 34 37 43 48 53 54 53 48 49 54 50 48 48 50 50 51 56 62 67 71 74 76 77 77 79 80 80 79 80 79 76 75 71 68
37 37 39 43 47 40 34 32 27 27 26 25 24 25 28 31 34 36 40 45 49 50 49 50 51 55 59 62 64 65 66 69 69 72 77 78 80 83 86 85 84 85 86 86 84 84 83 81 77
37 36 39 41 44 42 37 33 32 27 26 25 25 25 27 30 34 37 40 44 49 53 55 57 59 60 62 66 71 76 79 81 84 86 87 88 88 88 88 90 93 95 94 94 92 91 89 88 85
36 36 38 42 44 43 38 35 34 31 29 26 28 31 35 38 41 42 44 46 51 55 59 62 66 70 72 75 79 83 85 88 89 94 93 94 93 93 95 95 93 97 101 102 101 99 94 91 91
36 36 38 38 40 43 43 36 34 35 32 30 33 35 34 36 39 44 45 49 53 57 60 64 68 72 76 79 84 89 91 93 98 101 98 95 93 92 92 95 96 97 95 99 103 104 103 98 95
36 36 39 40 42 44 46 43 36 38 37 37 37 36 36 40 43 47 50 54 58 61 66 71 74 79 82 87 91 95 98 101 101 98 90 80 72 68 69 69 71 73 76 80 86 91 97 98 98
38 38 40 44 45 49 51 50 42 38 40 41 42 41 43 46 50 53 57 60 65 69 74 79 84 87 93 97 100 101 99 96 85 73 66 60 55 52 51 50 52 55 59 63 66 72 80 86 90

GFSSGP_250_spd_342.txt.gz
Wind_Speed
17 17 16 15 16 17 18 17 18 20 20 20 22 26 33 37 43 47 47 46 49 51 52 52 52 52 53 53 52 52 53 53 52 53 50 46 41 42 38 36 34 36 34 34 35 37 41 42 44
17 17 17 15 17 17 18 19 21 23 21 21 22 22 23 27 34 39 43 49 52 52 53 55 56 55 54 53 53 54 55 54 52 47 46 43 40 40 38 37 37 36 33 33 32 33 35 36 35
14 15 15 14 14 16 18 19 20 23 24 25 24 22 24 27 30 31 33 37 43 46 48 50 50 51 51 51 51 50 49 46 45 45 44 40 41 39 38 39 37 34 33 34 35 36 36 37 35
12 12 12 12 12 12 14 16 18 20 22 26 27 25 25 28 31 34 35 34 35 37 40 42 43 41 40 41 42 42 43 42 41 42 42 42 42 42 45 43 39 37 36 34 34 38 39 38 38
14 14 14 14 15 16 18 19 19 21 22 23 25 27 29 29 33 35 36 37 37 37 37 38 39 39 39 38 39 39 38 41 41 41 42 42 44 45 46 41 39 35 35 36 36 37 39 42 41
13 14 16 18 19 20 21 22 22 22 24 25 25 26 28 33 35 35 36 36 38 38 39 39 38 38 38 37 37 38 38 39 39 41 44 46 43 43 44 39 37 38 38 39 38 39 40 40 42
11 12 16 19 22 22 24 24 25 25 26 27 27 28 31 34 33 35 37 37 38 38 39 40 39 38 39 39 39 39 39 39 41 42 46 48 48 45 42 37 38 42 40 38 38 37 35 34 32
14 14 15 20 23 24 24 26 26 26 27 27 28 29 31 33 34 35 36 37 37 37 36 36 36 36 36 35 34 33 32 34 34 33 34 33 34 38 38 35 37 34 33 31 31 30 28 26 26
15 15 16 23 24 28 32 32 32 29 30 32 32 30 30 32 35 38 38 37 37 35 32 30 29 27 29 28 25 20 19 21 23 23 25 24 27 33 34 33 26 23 24 26 26 26 26 26 24
19 19 19 20 27 29 35 35 38 35 35 38 36 32 30 31 33 37 39 37 34 32 26 28 26 24 21 20 17 17 18 18 21 20 23 25 26 27 28 26 26 27 27 23 24 24 25 25 25
20 21 22 24 28 33 37 39 42 40 40 42 37 33 29 30 32 33 33 32 27 27 25 24 24 22 23 21 20 17 18 20 20 19 21 23 24 28 28 29 32 32 26 28 23 21 21 20 20
22 25 28 30 33 38 41 42 45 44 45 43 38 30 29 28 29 29 28 26 24 22 20 19 18 22 24 22 23 21 22 23 23 20 15 14 16 17 13 14 14 16 13 17 22 23 23 20 20
24 28 30 33 35 41 43 48 49 50 50 40 32 28 27 28 28 27 25 22 20 18 18 13 14 16 17 15 15 21 27 33 34 28 26 20 20 23 23 25 24 24 25 26 27 25 24 22 22
25 30 36 35 39 42 46 51 53 56 43 32 27 23 24 27 27 24 21 17 11 9 9 9 4 5 21 10 14 19 20 28 38 31 30 33 32 33 33 31 30 30 29 30 28 25 26 26 27
31 31 38 38 42 47 50 53 57 46 34 27 22 22 18 19 20 17 17 11 9 6 3 2 14 20 14 9 11 21 32 23 39 42 39 40 40 42 42 40 38 37 40 36 35 33 33 34 35
30 35 38 40 45 50 53 56 47 38 30 22 18 15 15 13 17 15 13 11 7 5 9 8 10 5 12 24 21 22 33 37 45 48 40 42 39 43 49 51 48 43 44 40 40 43 44 43 45
28 37 42 42 47 52 54 50 45 34 28 20 16 15 15 17 17 7 11 7 9 8 9 17 17 16 15 13 20 23 26 32 40 48 51 50 48 48 52 55 56 51 51 51 52 55 56 54 54
31 38 42 43 47 50 53 46 46 35 28 20 17 18 17 19 19 12 6 7 15 21 23 27 30 33 30 25 32 34 35 38 43 50 53 57 61 58 57 61 65 63 61 62 56 58 51 50 56
33 36 38 42 47 49 51 47 44 36 29 20 17 18 20 19 20 20 12 13 26 33 32 37 35 40 36 42 41 43 44 47 52 60 64 63 64 71 68 65 66 68 71 74 75 67 62 53 51
30 34 38 40 46 46 49 45 42 37 30 24 19 18 22 24 23 20 23 25 34 37 38 42 39 40 47 47 47 50 53 60 63 59 55 54 57 60 66 67 68 70 73 76 80 80 72 71 65
28 35 36 39 44 45 46 42 42 37 32 24 20 21 24 28 29 29 32 36 41 41 42 42 51 52 54 57 59 60 60 56 56 57 58 57 58 59 61 62 64 67 69 72 75 77 80 78 72
30 35 37 40 44 44 43 43 41 39 33 27 20 17 21 28 34 38 40 39 40 42 44 47 46 46 50 52 54 55 57 59 58 54 56 58 60 64 67 69 71 73 74 75 76 74 71 71 73
31 35 37 39 44 44 45 46 40 37 35 34 27 21 19 19 22 25 28 32 35 35 40 40 41 43 45 50 53 56 59 62 65 68 69 71 70 70 73 75 76 76 77 77 81 81 80 77 76
30 34 36 38 41 44 45 47 45 38 34 33 32 29 25 25 27 29 32 33 34 33 37 40 45 48 51 54 57 59 62 65 69 74 76 77 78 79 81 83 86 86 87 85 84 83 84 84 83
30 34 35 37 41 44 44 48 49 46 42 38 33 28 29 33 36 36 36 36 38 43 47 48 51 56 58 61 63 66 70 73 75 77 81 84 87 89 92 94 94 95 96 98 95 92 88 87 88
30 33 35 37 40 42 45 48 50 52 48 47 46 43 42 42 42 43 44 46 49 53 55 59 63 66 69 72 75 78 81 82 85 87 88 90 94 99 101 103 103 104 103 103 101 98 95 93 90
31 34 36 38 40 45 47 48 52 56 48 45 46 49 51 52 53 54 53 54 57 62 67 70 72 75 78 80 83 87 90 92 94 97 97 99 101 102 104 106 107 108 107 107 104 99 95 94 93
31 34 37 37 40 45 45 50 53 59 54 47 47 47 49 54 57 58 59 61 65 68 69 73 76 78 81 85 90 95 98 101 103 103 104 105 104 101 95 91 87 83 80 78 75 75 76 81 84
33 36 38 39 43 46 48 50 54 59 56 51 49 48 46 46 47 49 55 58 64 70 76 80 83 88 93 96 99 102 104 105 103 95 85 78 73 67 63 58 56 56 55 54 53 55 56 61 65
34 36 38 40 43 46 49 51 55 58 56 49 46 41 38 41 46 51 58 64 69 74 81 88 94 97 101 103 102 98 88 77 69 61 57 54 51 48 45 39 35 33 35 35 36 39 42 46 52

GFSSGP_250_spd_345.txt.gz
Wind_Speed
16 15 13 12 9 11 17 24 23 21 20 21 22 25 27 33 40 47 49 50 51 51 52 53 54 56 56 56 56 53 53 55 55 53 57 53 55 53 50 48 45 46 43 43 43 40 40 38 36
12 10 10 10 11 14 16 17 19 21 23 26 27 27 26 30 35 39 43 47 50 53 55 56 55 55 56 56 57 56 56 57 55 54 53 53 50 48 47 44 43 44 44 42 42 41 38 37 36
9 9 9 9 9 10 12 15 17 19 21 25 26 30 32 32 33 35 38 41 43 47 49 54 57 58 59 59 59 59 57 55 53 50 49 47 44 41 42 40 43 44 45 47 44 42 39 37 35
11 11 12 11 10 11 13 15 17 16 17 21 22 27 31 35 35 36 37 38 39 39 40 41 42 46 48 51 53 53 52 51 49 46 42 40 39 40 42 43 44 45 43 41 38 37 34 35 36
11 10 10 11 13 15 17 19 21 24 22 26 22 28 29 30 33 38 39 39 39 39 39 40 39 39 40 41 41 42 43 42 42 41 39 40 43 44 45 43 43 34 34 34 33 32 37 38 36
11 12 13 14 14 16 19 21 22 25 28 29 29 31 34 35 32 36 37 39 41 41 41 41 40 40 40 39 39 37 38 39 40 41 42 45 45 44 43 40 32 26 30 31 32 33 34 34 34
13 16 17 16 19 19 22 24 26 26 26 25 24 21 43 30 37 37 37 37 38 39 40 40 39 39 39 40 39 39 40 40 41 42 43 44 45 47 49 44 35 31 30 32 30 30 28 29 29
16 18 17 18 20 23 26 28 31 30 30 25 26 22 37 48 45 41 40 38 38 38 37 36 36 37 37 35 35 35 36 37 36 37 38 40 40 40 39 38 36 36 35 37 37 34 31 29 29
17 19 20 22 25 28 30 33 33 34 37 31 25 31 36 39 41 42 41 40 39 38 36 34 33 33 31 29 28 26 29 31 32 32 32 34 37 36 31 30 31 33 35 33 31 31 31 29 29
19 20 23 25 29 33 36 38 39 42 45 39 38 37 36 35 35 36 35 31 30 30 30 30 31 30 26 26 24 23 22 24 24 25 25 22 24 27 27 28 27 24 26 29 29 28 25 26 27
19 20 27 32 36 36 38 42 46 47 50 49 46 38 30 28 27 28 27 22 21 19 23 25 29 24 22 20 19 24 24 27 23 23 26 26 22 14 14 23 24 25 25 24 26 25 26 24 24
24 28 31 35 38 39 43 47 51 54 53 45 38 29 24 23 22 21 21 18 21 15 26 26 22 18 12 5 17 24 22 24 24 26 29 26 27 25 19 20 22 21 19 21 20 16 19 20 16
29 31 32 38 42 45 48 51 51 51 47 38 31 25 21 20 18 12 17 14 19 24 24 22 20 15 15 12 6 29 31 26 29 27 34 31 31 31 29 33 33 35 34 33 31 27 27 27 27
26 29 33 39 43 47 52 43 60 57 46 32 26 20 17 16 15 16 16 13 12 15 17 16 19 22 24 21 24 37 35 32 39 42 32 34 33 35 39 44 44 42 40 40 36 37 35 31 31
26 29 35 40 43 45 51 35 52 55 45 30 24 19 15 15 14 15 16 16 12 11 15 17 21 25 17 20 30 31 36 29 41 49 30 40 36 39 42 43 49 45 44 45 44 43 43 42 37
27 34 34 36 39 42 51 22 63 50 44 29 22 18 15 14 15 18 17 9 11 15 14 15 18 22 23 31 32 32 38 43 42 38 41 36 43 44 47 47 48 47 48 52 52 51 50 50 44
32 32 32 39 39 35 31 32 41 42 41 33 24 18 17 13 14 13 10 14 16 18 16 20 23 23 28 26 31 32 45 47 44 39 40 41 42 46 52 52 54 56 55 54 56 58 60 55 54
29 30 34 39 40 40 44 32 38 44 44 41 31 23 19 17 16 16 15 14 20 21 26 23 28 30 34 40 49 43 39 42 52 55 56 54 54 54 57 61 62 60 57 61 62 66 66 67 63
29 28 32 39 40 42 42 45 40 52 46 42 40 32 22 23 18 20 19 21 25 29 36 35 37 39 44 49 45 49 53 51 50 54 62 63 66 67 67 66 60 57 61 62 66 69 70 71 72
27 28 33 38 40 43 48 50 31 49 47 42 42 39 32 25 26 26 28 30 30 36 36 38 43 49 50 50 53 57 57 52 50 53 58 62 66 68 66 63 63 61 57 60 63 64 65 66 69
27 29 35 37 39 41 45 45 38 42 45 52 48 39 34 30 26 27 33 35 39 42 48 53 51 50 56 55 52 53 53 55 55 55 57 60 62 63 64 63 64 64 61 61 64 66 67 67 67
28 31 33 37 39 39 42 39 48 29 44 62 57 46 41 37 33 29 26 30 36 38 41 45 45 46 47 49 51 53 56 59 63 65 64 64 64 64 66 68 71 73 74 73 74 74 75 73 74
29 29 33 37 40 39 36 43 50 17 48 61 59 47 42 41 37 35 34 35 37 39 43 43 46 46 49 52 55 58 59 61 64 69 71 73 72 72 73 76 78 78 78 79 80 82 82 82 81
26 29 34 36 39 39 33 42 34 16 30 48 49 42 40 40 39 40 45 46 46 45 46 47 47 54 55 60 62 64 67 68 71 75 80 81 80 82 82 85 87 86 86 87 87 88 90 91 89
24 29 35 37 40 35 35 36 38 37 45 50 51 49 42 41 41 40 42 47 50 52 51 53 55 57 60 66 70 74 77 79 79 81 85 89 91 92 92 93 95 96 97 97 96 95 95 95 95
24 30 36 39 42 44 41 42 44 45 50 56 59 54 49 47 43 41 41 42 46 48 53 57 63 66 70 75 79 83 83 87 89 90 93 95 98 102 104 103 103 104 105 106 105 105 105 105 103
25 29 36 38 41 44 47 45 49 49 53 58 61 60 54 50 47 47 46 49 55 60 64 67 74 76 82 87 90 93 94 97 98 100 102 105 107 108 111 113 113 112 111 109 108 106 107 104 104
25 31 36 39 41 44 49 48 52 54 57 59 64 62 58 55 50 52 54 60 65 70 76 79 86 90 92 97 101 105 108 108 108 105 100 95 87 82 79 77 79 77 75 74 72 72 75 77 77
26 30 36 38 43 46 48 49 55 58 61 62 65 63 59 54 52 56 61 66 73 79 85 91 95 97 97 94 92 89 85 80 74 70 67 64 60 57 54 54 54 53 52 50 50 51 52 52 50
28 31 35 39 41 43 46 48 51 55 59 65 66 62 55 52 56 62 69 77 85 91 87 75 69 67 64 62 59 58 56 51 48 45 42 40 38 37 36 35 34 33 31 31 31 31 30 33 36